This is the latest recevied weather packets stored in our database for station/object JE6MIQ-13. If no packets are shown the sender has not sent any weather packets the latest 10 day(s).
| Time | Temp. | Humidity | Pressure | Rain* | Wind** | Luminosity | Snow |
|---|---|---|---|---|---|---|---|
| 1777954354 | 25° C | 29% | 1018.1 hPa | 0 mm | - | - | - |
| 1777953756 | 25° C | 29% | 1018 hPa | 0 mm | - | - | - |
| 1777953156 | 25.56° C | 29% | 1018.2 hPa | 0 mm | - | - | - |
| 1777952555 | 25.56° C | 29% | 1018.2 hPa | 0 mm | - | - | - |
| 1777951955 | 25.56° C | 29% | 1018.2 hPa | 0 mm | - | - | - |
| 1777951355 | 26.67° C | 29% | 1018.3 hPa | 0 mm | - | - | - |
| 1777950754 | 25.56° C | 29% | 1018.3 hPa | 0 mm | - | - | - |
| 1777950155 | 25.56° C | 29% | 1018.1 hPa | 0 mm | - | - | - |
| 1777949556 | 25° C | 29% | 1018.2 hPa | 0 mm | - | - | - |
| 1777948956 | 23.89° C | 29% | 1018.2 hPa | 0 mm | - | - | - |
| 1777948356 | 25.56° C | 29% | 1018 hPa | 0 mm | - | - | - |
| 1777947755 | 24.44° C | 29% | 1018.1 hPa | 0 mm | - | - | - |
| 1777947155 | 24.44° C | 29% | 1018.1 hPa | 0 mm | - | - | - |
| 1777946554 | 24.44° C | 29% | 1018.1 hPa | 0 mm | - | - | - |
| 1777945955 | 25° C | 29% | 1018.1 hPa | 0 mm | - | - | - |
| 1777945355 | 23.89° C | 29% | 1018.1 hPa | 0 mm | - | - | - |
| 1777944756 | 23.89° C | 29% | 1018.3 hPa | 0 mm | - | - | - |
| 1777944155 | 23.33° C | 29% | 1017.9 hPa | 0 mm | - | - | - |
| 1777943554 | 23.89° C | 29% | 1017.9 hPa | 0 mm | - | - | - |
| 1777942955 | 23.33° C | 29% | 1018.3 hPa | 0 mm | - | - | - |
| 1777942354 | 22.78° C | 29% | 1018.1 hPa | 0 mm | - | - | - |
| 1777941754 | 22.22° C | 29% | 1018.1 hPa | 0 mm | - | - | - |
| 1777941156 | 21.67° C | 29% | 1018.3 hPa | 0 mm | - | - | - |
| 1777940556 | 21.11° C | 29% | 1018.4 hPa | 0 mm | - | - | - |
| 1777939954 | 20.56° C | 29% | 1018.3 hPa | 0 mm | - | - | - |
* Rain latest hour (hover to see other rain measurements)
** Current wind speed in m/s (hover to see current wind gust speed)